Flag for Germany Weather past 2 weeks in Wolfsburg, Lower Saxony, Germany

Now
41 °F

Broken clouds.


Feels Like: 35 °F
Forecast: 37 / 46 °F
Wind: 10 mph from Northwest

Location: Braunschweig

Current Time: Mar 5, 2015 at 12:03:06 PM

Latest Report: Mar 5, 2015 at 11:20 AM


Visibility: N/A

Pressure: 30.54 "Hg

Humidity: 93%

Dew point: 39 °F

Location of WolfsburgLocation

Historic Weather in Wolfsburg — Graph

°F

Wolfsburg temperature yesterday

Maximum temperature yesterday: 43 °F (at 12:20 PM)
Minimum temperature yesterday: 34 °F (at 5:50 AM)
Average temperature yesterday: 39 °F

Past Weeks' High & Low Weather Summary

 TemperatureHumidityPressure
High52 °F (Feb 26, 3:20 PM)100% (Feb 18, 10:20 AM)30.72 "Hg (Feb 18, 10:20 AM)
Low27 °F (Feb 26, 6:50 AM)47% (Feb 26, 3:20 PM)29.33 "Hg (Feb 21, 9:50 AM)
Average41 °F79%29.90 "Hg
* Reported Feb 18 10:20 AM — Mar 5 10:50 AM, Wolfsburg, Weather by CustomWeather, © 2015

Note: Actual official high and low records may vary slightly from our data, if they occured in-between our weather recording intervals... More about our weather records

Advertising

Wolfsburg weather history for previous 24 hours

 ConditionsComfort  
Time TempWeatherWind HumidityBarometerVisibility
10:50 AM
Thu, Mar 5
41 °FMore clouds than sun.10 mph93%30.54 "HgN/A
10:20 AM39 °FMore clouds than sun.10 mph100%30.54 "HgN/A
9:50 AM39 °FPartly sunny.8 mph100%30.54 "HgN/A
9:20 AM37 °FMostly cloudy.8 mph100%30.54 "HgN/A
8:50 AM37 °FLow clouds.8 mph100%30.51 "HgN/A
8:20 AM37 °FMostly cloudy.7 mph100%30.51 "HgN/A
7:50 AM36 °FBroken clouds.8 mph100%30.51 "HgN/A
7:20 AM36 °FBroken clouds.8 mph100%30.51 "HgN/A
6:50 AM34 °FPassing clouds.7 mph100%30.48 "HgN/A
11:20 PM
Wed, Mar 4
39 °FLight rain. Partly cloudy.12 mph100%30.24 "HgN/A
9:20 PM37 °FOvercast.12 mph100%30.21 "HgN/A
8:50 PM37 °FOvercast.10 mph100%30.21 "HgN/A
8:20 PM37 °FMostly cloudy.12 mph100%30.18 "HgN/A
7:50 PM37 °FOvercast.16 mph100%30.18 "HgN/A
7:20 PM39 °FRain showers. Passing clouds.14 mph87%30.18 "HgN/A
6:50 PM37 °FPassing clouds.10 mph93%30.18 "HgN/A
6:20 PM37 °FPassing clouds.10 mph93%30.15 "HgN/A
5:50 PM39 °FScattered clouds.9 mph93%30.15 "HgN/A
5:20 PM39 °FScattered clouds.10 mph93%30.15 "HgN/A
4:50 PM39 °FRain. Broken clouds.16 mph87%30.15 "HgN/A
4:20 PM41 °FBroken clouds.14 mph76%30.15 "HgN/A
3:50 PM41 °FPartly sunny.14 mph76%30.15 "HgN/A
3:20 PM41 °FPartly sunny.16 mph76%30.15 "HgN/A
2:50 PM41 °FPartly sunny.17 mph76%30.15 "HgN/A
2:20 PM43 °FPartly sunny.15 mph76%30.15 "HgN/A
1:50 PM41 °FPartly sunny.16 mph76%30.15 "HgN/A
1:20 PM41 °FPartly sunny.16 mph76%30.15 "HgN/A
12:50 PM41 °FMore clouds than sun.16 mph81%30.15 "HgN/A
12:20 PM43 °FPartly sunny.17 mph76%30.12 "HgN/A
Weather by CustomWeather, © 2015

See weather overviewHow to use our weather pages